FW2422 Weather Reports


Display with metric or nautical units.
time (UTC)temp
F
wind
direction
speed
MPH
gust
MPH
rain 1hr
in
rain 24hr
in
rain mn
in
humidity
%
barometer
mb
20260508193032 77 260 1.0 5.0 0.00 0.00 0.00 62 1010.7
20260508191528 76 104 2.0 7.0 0.00 0.00 0.00 61 1011.0
20260508190026 77 112 3.0 7.0 0.00 0.00 0.00 59 1011.1
20260508184531 79 148 0.0 5.0 0.00 0.00 0.00 59 1011.1
20260508183022 79 127 1.0 5.0 0.00 0.00 0.00 58 1011.2
20260508181527 79 129 2.0 6.0 0.00 0.00 0.00 58 1011.5
20260508180019 79 117 1.0 5.0 0.00 0.00 0.00 58 1011.6
20260508174516 78 123 0.0 5.0 0.00 0.00 0.00 57 1012.0
20260508173021 77 114 0.0 6.0 0.00 0.00 0.00 58 1012.2
20260508171517 76 90 0.0 4.0 0.00 0.00 0.00 59 1012.2
20260508170004 75 106 1.0 7.0 0.00 0.00 0.00 60 1012.9
20260508164601 75 171 2.0 5.0 0.00 0.00 0.00 59 1013.4
20260508163102 74 109 2.0 6.0 0.00 0.00 0.00 60 1013.4
20260508161604 73 148 0.0 5.0 0.00 0.00 0.00 62 1013.6
20260508160056 73 160 0.0 7.0 0.00 0.00 0.00 62 1013.7
20260508154549 72 129 2.0 8.0 0.00 0.00 0.00 63 1014.0
20260508153052 70 136 0.0 3.0 0.00 0.00 0.00 66 1014.1
20260508151546 70 93 0.0 6.0 0.00 0.00 0.00 64 1014.3
20260508150046 71 108 1.0 4.0 0.00 0.00 0.00 63 1014.2
20260508144535 70 143 0.0 5.0 0.00 0.00 0.00 65 1014.1
20260508133105 66 57 1.0 5.0 0.00 0.00 0.00 71 1014.4
20260508131555 66 107 1.0 5.0 0.00 0.00 0.00 73 1014.7
20260508130052 65 90 0.0 0.0 0.00 0.00 0.00 76 1014.9
20260508124548 62 139 0.0 0.0 0.00 0.00 0.00 85 1014.9
20260508104531 0 0.0 0.0 0.00 0.00 0.00 1014.5
20260508094515 61 140 0.0 0.0 0.00 0.00 0.00 82 1014.1
20260508093021 62 140 0.0 1.0 0.00 0.00 0.00 81 1013.9
20260508091521 62 143 0.0 1.0 0.00 0.00 0.00 80 1014.0
20260508090014 62 143 0.0 3.0 0.00 0.00 0.00 81 1014.0
20260508084510 62 146 0.0 0.0 0.00 0.00 0.00 83 1014.2
20260508083007 62 146 0.0 0.0 0.00 0.00 0.00 82 1015.1
20260508081507 62 146 0.0 0.0 0.00 0.00 0.00 82 1015.4
20260508080006 62 146 0.0 0.0 0.00 0.00 0.00 82 1015.5
20260508074505 62 146 0.0 0.0 0.00 0.00 0.00 82 1015.2
20260508063054 61 146 0.0 0.0 0.00 0.00 0.00 81 1015.6
20260508061552 61 146 0.0 0.0 0.00 0.00 0.00 81 1015.7
20260508060055 61 146 0.0 0.0 0.00 0.00 0.00 80 1015.8
20260508054552 61 146 0.0 0.0 0.00 0.00 0.00 79 1015.7
20260508044531 62 146 0.0 0.0 0.00 0.00 0.00 76 1015.7
20260508043030 62 146 0.0 0.0 0.00 0.00 0.00 76 1015.5
20260508041530 62 146 0.0 0.0 0.00 0.00 0.00 76 1015.6
20260508040029 62 146 0.0 0.0 0.00 0.00 0.00 75 1015.5
20260508034538 62 146 0.0 0.0 0.00 0.00 0.00 75 1015.4
20260508024509 64 146 0.0 0.0 0.00 0.00 0.00 71 1015.2
20260508003059 68 122 0.0 3.0 0.00 0.00 0.00 62 1015.1
20260508001558 68 120 0.0 3.0 0.00 0.00 0.00 61 1015.2
20260508000056 68 134 0.0 3.0 0.00 0.00 0.00 60 1015.2
20260507234603 68 123 1.0 4.0 0.00 0.00 0.00 60 1015.1
20260507213016 72 62 0.0 4.0 0.00 0.00 0.00 52 1015.7